EW5759 Weather Reports


time (UTC)temp
C
wind
direction
speed
KPH
gust
KPH
rain 1hr
cm
rain 24hr
cm
rain mn
cm
humidity
%
barometer
mb
20260507151539 13 344 6.4 12.9 0.00 0.15 0.00 53 1012.0
20260507151029 13 270 6.4 12.9 0.00 0.15 0.00 52 1012.2
20260507150531 12 2 4.8 11.3 0.00 0.15 0.00 49 1012.2
20260507150044 12 245 6.4 16.1 0.00 0.15 0.00 51 1012.3
20260507145528 12 297 4.8 17.7 0.00 0.33 0.00 50 1012.3
20260507145028 12 356 4.8 17.7 0.00 0.33 0.00 52 1012.4
20260507144609 12 323 11.3 17.7 0.00 0.33 0.00 48 1012.5
20260507144030 12 285 4.8 12.9 0.00 0.33 0.00 51 1012.4
20260507143528 12 16 9.7 16.1 0.00 0.33 0.00 47 1012.5
20260507143045 12 334 9.7 16.1 0.00 0.33 0.00 49 1012.7
20260507142528 12 336 6.4 11.3 0.00 0.33 0.00 49 1012.7
20260507142031 11 336 4.8 11.3 0.00 0.33 0.00 49 1012.8
20260507141543 11 307 3.2 11.3 0.00 0.33 0.00 49 1012.8
20260507141031 11 354 3.2 11.3 0.00 0.33 0.00 48 1012.9
20260507140534 11 286 4.8 9.7 0.00 0.33 0.00 50 1012.9
20260507140039 11 7 4.8 11.3 0.00 0.33 0.00 49 1012.9
20260507135528 11 354 3.2 11.3 0.00 0.48 0.00 52 1013.1
20260507135028 11 311 4.8 11.3 0.00 0.48 0.00 52 1013.2
20260507134548 11 317 4.8 8.0 0.00 0.48 0.00 49 1013.3
20260507134031 11 316 3.2 9.7 0.00 0.48 0.00 56 1013.4
20260507133528 11 342 4.8 9.7 0.00 0.48 0.00 52 1013.4
20260507133045 11 301 4.8 9.7 0.00 0.48 0.00 53 1013.4
20260507132527 11 306 3.2 9.7 0.00 0.48 0.00 53 1013.3
20260507132030 11 323 3.2 11.3 0.00 0.48 0.00 57 1013.2
20260507131544 10 314 3.2 14.5 0.00 0.48 0.00 57 1013.5
20260507131028 10 327 6.4 14.5 0.00 0.48 0.00 53 1013.5
20260507130530 10 289 6.4 12.9 0.00 0.48 0.00 56 1013.5
20260507130041 10 6 8.0 14.5 0.00 0.48 0.00 54 1013.5
20260507125528 10 293 8.0 14.5 0.00 0.56 0.00 52 1013.3
20260507125033 10 329 8.0 14.5 0.00 0.56 0.00 54 1013.4
20260507124545 10 327 4.8 14.5 0.00 0.56 0.00 57 1013.4
20260507124033 10 302 4.8 12.9 0.00 0.56 0.00 57 1013.3
20260507123528 10 332 8.0 12.9 0.00 0.56 0.00 54 1013.2
20260507123048 10 322 6.4 12.9 0.00 0.56 0.00 57 1013.3
20260507122527 10 289 6.4 11.3 0.00 0.56 0.00 58 1013.2
20260507122030 10 300 4.8 11.3 0.00 0.56 0.00 61 1013.1
20260507121545 10 325 6.4 11.3 0.00 0.56 0.00 62 1013.1
20260507121031 10 332 3.2 6.4 0.00 0.56 0.00 62 1013.1
20260507120532 10 332 3.2 6.4 0.00 0.56 0.00 60 1013.3
20260507120043 9 296 1.6 8.0 0.00 0.56 0.00 61 1013.3
20260507115530 9 291 1.6 8.0 0.00 0.61 0.00 61 1013.3
20260507115028 9 282 3.2 8.0 0.00 0.61 0.00 62 1013.2
20260507114552 9 276 1.6 4.8 0.00 0.61 0.00 64 1013.1
20260507114030 9 302 1.6 4.8 0.00 0.61 0.00 62 1013.2
20260507113527 9 319 3.2 4.8 0.00 0.61 0.00 64 1013.4
20260507113036 9 312 3.2 4.8 0.00 0.61 0.00 65 1013.3
20260507112530 9 309 1.6 6.4 0.00 0.61 0.00 64 1013.3
20260507112031 9 292 1.6 6.4 0.00 0.61 0.00 65 1013.2
20260507111550 9 316 1.6 6.4 0.00 0.61 0.00 63 1013.2
20260507111033 9 359 3.2 8.0 0.00 0.61 0.00 64 1012.9
20260507110531 9 311 4.8 8.0 0.00 0.61 0.00 63 1013.0
20260507110045 9 329 4.8 8.0 0.00 0.61 0.00 63 1012.8
20260507105529 9 6 3.2 6.4 0.00 0.66 0.00 65 1012.7
20260507105031 8 330 3.2 4.8 0.00 0.66 0.00 65 1012.7
20260507104544 9 0 0.0 0.0 0.00 0.66 0.00 73 1012.7
20260507104027 9 0 0.0 4.8 0.00 0.66 0.00 72 1012.6
20260507103532 8 0 1.6 4.8 0.00 0.66 0.00 68 1012.5
20260507103043 8 0 0.0 0.0 0.00 0.66 0.00 66 1012.5
20260507102530 8 0 0.0 1.6 0.00 0.66 0.00 66 1012.3
20260507102029 8 0 0.0 1.6 0.00 0.66 0.00 67 1012.1
20260507101549 8 234 0.0 1.6 0.00 0.66 0.00 66 1012.1
20260507101031 8 0 0.0 0.0 0.00 0.66 0.00 67 1012.0
20260507100530 9 0 0.0 0.0 0.00 0.66 0.00 70 1012.1
20260507100048 9 0 0.0 0.0 0.00 0.66 0.00 67 1012.0
20260507095530 9 0 0.0 0.0 0.00 0.66 0.00 66 1012.0
20260507095030 9 0 0.0 3.2 0.00 0.66 0.00 64 1012.0
20260507094547 9 0 0.0 4.8 0.00 0.66 0.00 66 1011.9
20260507094030 9 354 1.6 4.8 0.00 0.66 0.00 61 1012.1
20260507093530 9 345 0.0 6.4 0.00 0.66 0.00 62 1012.0
20260507093046 9 349 1.6 6.4 0.00 0.66 0.00 60 1012.0
20260507092531 9 20 0.0 3.2 0.00 0.66 0.00 60 1012.1
20260507092030 10 0 0.0 6.4 0.00 0.66 0.00 59 1012.0
20260507091542 10 337 3.2 8.0 0.00 0.66 0.00 58 1011.9
20260507091032 10 328 3.2 11.3 0.00 0.66 0.00 57 1011.9
20260507090534 10 332 3.2 11.3 0.00 0.66 0.00 57 1011.9
20260507090043 10 339 6.4 11.3 0.00 0.66 0.00 56 1011.9
20260507085530 10 9 8.0 17.7 0.00 0.66 0.00 57 1011.8
20260507085031 10 331 8.0 17.7 0.00 0.66 0.00 57 1011.9
20260507084546 10 313 6.4 12.9 0.00 0.66 0.00 57 1011.8
20260507084032 10 311 6.4 12.9 0.00 0.66 0.00 58 1011.7
20260507083532 10 329 8.0 12.9 0.00 0.66 0.00 57 1011.7
20260507083050 10 346 4.8 11.3 0.00 0.66 0.00 58 1011.6
20260507082532 10 320 3.2 11.3 0.00 0.66 0.00 59 1011.6
20260507082031 10 336 3.2 11.3 0.00 0.66 0.00 59 1011.6
20260507081544 10 355 6.4 17.7 0.00 0.66 0.00 59 1011.6
20260507081032 10 344 9.7 17.7 0.00 0.66 0.00 58 1011.5
20260507080531 10 308 6.4 17.7 0.00 0.66 0.00 59 1011.5
20260507080044 10 324 9.7 17.7 0.00 0.66 0.00 58 1011.6
20260507075532 10 332 8.0 17.7 0.00 0.66 0.00 61 1011.5
20260507075036 10 337 8.0 17.7 0.00 0.66 0.00 62 1011.5
20260507074546 10 336 8.0 14.5 0.00 0.66 0.00 64 1011.4
20260507074031 10 303 8.0 14.5 0.00 0.66 0.00 66 1011.5
20260507073532 10 321 6.4 11.3 0.00 0.66 0.00 68 1011.4
20260507073047 10 328 6.4 11.3 0.00 0.66 0.00 68 1011.5
20260507072535 10 316 6.4 12.9 0.00 0.66 0.00 68 1011.4
20260507072030 11 304 6.4 12.9 0.00 0.66 0.00 69 1011.5
20260507071545 11 356 4.8 11.3 0.00 0.66 0.00 70 1011.7
20260507071031 11 323 3.2 12.9 0.00 0.66 0.00 70 1011.7
20260507070533 11 309 6.4 12.9 0.00 0.66 0.00 69 1011.6
20260507070045 11 318 6.4 16.1 0.00 0.66 0.00 70 1011.7
20260507065531 11 295 9.7 16.1 0.00 0.66 0.00 70 1011.8
20260507065030 11 317 3.2 8.0 0.00 0.66 0.00 72 1011.9
20260507064541 11 333 4.8 9.7 0.00 0.66 0.00 72 1011.8
20260507064032 11 316 3.2 11.3 0.00 0.66 0.00 72 1011.8
20260507063531 11 12 4.8 12.9 0.00 0.66 0.00 72 1011.8
20260507063047 11 354 6.4 17.7 0.00 0.66 0.00 72 1011.6
20260507062530 11 339 6.4 17.7 0.00 0.66 0.00 71 1011.7
20260507062032 11 359 9.7 17.7 0.00 0.66 0.00 71 1011.6
20260507061546 11 306 8.0 16.1 0.00 0.66 0.00 72 1011.8
20260507061029 11 344 11.3 16.1 0.00 0.66 0.00 72 1012.0
20260507060531 11 317 8.0 14.5 0.00 0.66 0.00 72 1011.8
20260507060055 11 347 9.7 14.5 0.00 0.66 0.00 73 1011.7
20260507055534 11 304 8.0 14.5 0.00 0.66 0.00 73 1011.7
20260507055029 11 336 9.7 17.7 0.00 0.66 0.00 73 1011.6
20260507054549 11 335 8.0 17.7 0.00 0.66 0.00 73 1011.6
20260507054031 11 326 9.7 17.7 0.00 0.66 0.00 73 1011.6
20260507053530 11 329 8.0 19.3 0.00 0.66 0.00 73 1011.5
20260507053047 11 330 9.7 22.5 0.00 0.66 0.00 73 1011.5
20260507052530 11 342 11.3 22.5 0.00 0.66 0.00 73 1011.4
20260507052031 11 330 12.9 20.9 0.00 0.66 0.00 72 1011.3
20260507051542 11 328 8.0 19.3 0.00 0.66 0.00 73 1011.4
20260507051034 11 349 8.0 19.3 0.00 0.66 0.00 74 1011.2
20260507050531 11 6 8.0 16.1 0.00 0.66 0.00 74 1011.3
20260507050042 11 315 6.4 16.1 0.00 0.66 0.00 74 1011.3
20260507045530 11 330 9.7 17.7 0.00 0.66 0.00 75 1011.3
20260507045030 11 15 6.4 19.3 0.00 0.66 0.00 74 1011.5
20260507044552 11 328 9.7 19.3 0.00 0.66 0.00 74 1011.5
20260507044030 12 8 9.7 19.3 0.00 0.66 0.00 75 1011.4
20260507043530 12 314 8.0 19.3 0.00 0.66 0.00 76 1011.3
20260507043044 12 333 8.0 17.7 0.00 0.66 0.00 77 1011.2
20260507042530 12 346 6.4 14.5 0.00 0.66 0.00 78 1011.5
20260507042029 12 319 6.4 14.5 0.00 0.66 0.00 79 1011.7
20260507041544 12 345 6.4 14.5 0.00 0.66 0.00 79 1011.5
20260507041030 12 9 6.4 14.5 0.00 0.66 0.00 79 1011.5
20260507040531 12 45 3.2 14.5 0.00 0.66 0.00 80 1011.6
20260507040043 12 9 3.2 14.5 0.00 0.66 0.00 80 1011.5
20260507035527 12 353 4.8 14.5 0.00 0.66 0.66 80 1011.6
20260507035030 12 358 3.2 9.7 0.00 0.66 0.66 80 1011.8
20260507034544 12 330 3.2 14.5 0.00 0.66 0.66 80 1011.5
20260507034028 12 342 9.7 14.5 0.00 0.66 0.66 80 1011.4
20260507033530 12 322 6.4 12.9 0.00 0.66 0.66 80 1011.2
20260507033046 12 348 4.8 9.7 0.00 0.66 0.66 80 1011.1
20260507032529 12 311 3.2 8.0 0.00 0.66 0.66 80 1011.3
20260507032033 12 0 3.2 8.0 0.00 0.66 0.66 80 1011.5
20260507031546 12 0 1.6 8.0 0.00 0.66 0.66 80 1011.5
20260507031030 12 300 3.2 8.0 0.00 0.66 0.66 80 1011.3
20260507030531 12 308 3.2 12.9 0.00 0.66 0.66 81 1011.4
20260507030050 12 311 8.0 12.9 0.00 0.66 0.66 81 1011.4
20260507025530 12 313 6.4 19.3 0.00 0.66 0.66 81 1011.1
20260507025030 12 335 9.7 20.9 0.00 0.66 0.66 80 1011.2
20260507024543 12 323 8.0 22.5 0.00 0.66 0.66 81 1011.0
20260507024033 12 304 9.7 22.5 0.00 0.66 0.66 82 1011.3
20260507023611 12 307 9.7 25.7 0.00 0.66 0.66 82 1011.4
20260507023045 12 323 14.5 25.7 0.00 0.66 0.66 82 1011.1
20260507022534 12 319 11.3 16.1 0.00 0.66 0.66 82 1011.1
20260507022032 12 338 8.0 14.5 0.00 0.66 0.66 82 1011.3
20260507021543 12 339 8.0 16.1 0.00 0.66 0.66 83 1011.5
20260507021032 12 8 8.0 16.1 0.00 0.66 0.66 82 1011.5
20260507020531 12 331 4.8 12.9 0.00 0.66 0.66 83 1011.6
20260507020049 12 324 6.4 12.9 0.00 0.66 0.66 82 1011.4
20260507015534 13 335 8.0 16.1 0.00 0.66 0.66 82 1011.1
20260507015032 13 332 8.0 16.1 0.00 0.66 0.66 82 1011.1
20260507014543 13 330 9.7 12.9 0.00 0.66 0.66 83 1011.0
20260507014032 13 311 4.8 11.3 0.00 0.66 0.66 83 1011.0
20260507013536 13 333 6.4 11.3 0.00 0.66 0.66 82 1011.2
20260507013051 13 310 6.4 9.7 0.00 0.66 0.66 82 1011.1
20260507012533 13 311 6.4 12.9 0.00 0.66 0.66 81 1011.2
20260507012032 13 306 4.8 12.9 0.00 0.66 0.66 81 1011.3
20260507011545 13 302 6.4 12.9 0.00 0.66 0.66 81 1011.2
20260507011031 13 317 4.8 12.9 0.00 0.66 0.66 81 1011.2
20260507010533 13 304 6.4 11.3 0.00 0.66 0.66 81 1011.2
20260507010046 13 311 6.4 12.9 0.00 0.66 0.66 81 1011.1
20260507005533 14 330 8.0 12.9 0.00 0.66 0.66 80 1011.3
20260507005030 14 320 8.0 11.3 0.00 0.66 0.66 80 1011.4
20260507004553 14 330 4.8 12.9 0.00 0.66 0.66 81 1011.4
20260507004031 14 311 4.8 12.9 0.00 0.66 0.66 80 1011.2
20260507003531 14 306 8.0 12.9 0.00 0.66 0.66 80 1011.2
20260507003045 14 345 4.8 11.3 0.00 0.66 0.66 80 1011.2
20260507002531 15 336 4.8 14.5 0.00 0.66 0.66 79 1011.2
20260507002032 15 338 8.0 14.5 0.00 0.66 0.66 79 1010.8
20260507001544 15 320 6.4 14.5 0.00 0.66 0.66 79 1011.0
20260507001029 15 338 6.4 14.5 0.00 0.66 0.66 79 1010.8
20260507000530 15 316 4.8 12.9 0.00 0.66 0.66 79 1010.8
20260507000052 15 310 8.0 12.9 0.00 0.66 0.66 80 1010.7
20260506235531 15 328 4.8 12.9 0.00 0.66 0.66 81 1010.6
20260506235030 15 282 6.4 12.9 0.00 0.66 0.66 80 1010.7
20260506234548 15 279 6.4 12.9 0.00 0.66 0.66 80 1010.4
20260506234030 15 280 8.0 12.9 0.00 0.66 0.66 79 1010.0
20260506233529 15 288 8.0 12.9 0.00 0.66 0.66 79 1009.8
20260506233044 15 302 8.0 12.9 0.00 0.66 0.66 79 1009.3
20260506232528 15 311 6.4 12.9 0.00 0.66 0.66 79 1009.5
20260506232031 16 280 4.8 11.3 0.00 0.66 0.66 79 1009.4
20260506231543 16 277 4.8 11.3 0.00 0.66 0.66 79 1009.5
20260506231031 16 274 6.4 11.3 0.00 0.66 0.66 78 1009.4
20260506230531 16 265 3.2 9.7 0.00 0.66 0.66 78 1009.3
20260506230055 16 226 4.8 9.7 0.00 0.66 0.66 78 1009.5
20260506225529 16 216 4.8 17.7 0.00 0.66 0.66 79 1009.4
20260506225029 16 303 4.8 17.7 0.00 0.66 0.66 80 1009.3
20260506224559 16 297 4.8 17.7 0.00 0.66 0.66 81 1009.3
20260506224028 16 278 9.7 17.7 0.00 0.66 0.66 80 1009.2
20260506223529 16 278 9.7 16.1 0.03 0.66 0.66 80 1009.1
20260506223044 16 299 11.3 17.7 0.03 0.66 0.66 80 1009.1
20260506222533 16 294 9.7 17.7 0.03 0.66 0.66 80 1009.0
20260506222029 16 305 8.0 17.7 0.03 0.66 0.66 81 1009.0
20260506221542 16 278 9.7 19.3 0.03 0.66 0.66 81 1009.1
20260506221029 17 270 9.7 19.3 0.03 0.66 0.66 82 1009.0
20260506220529 17 314 6.4 14.5 0.03 0.66 0.66 85 1008.7
20260506220044 17 276 6.4 11.3 0.03 0.66 0.66 85 1008.8
20260506215532 17 255 4.8 9.7 0.03 0.66 0.66 86 1008.7
20260506215029 17 266 4.8 8.0 0.03 0.66 0.66 87 1008.7
20260506214604 17 271 4.8 14.5 0.03 0.66 0.66 87 1008.8
20260506214028 17 277 4.8 14.5 0.03 0.66 0.66 87 1008.6
20260506213528 17 260 8.0 17.7 0.00 0.64 0.64 86 1008.5
20260506213046 17 281 6.4 17.7 0.00 0.64 0.64 86 1008.3
20260506212529 17 281 9.7 17.7 0.00 0.64 0.64 87 1008.3
20260506212033 17 200 6.4 16.1 0.00 0.64 0.64 87 1007.9
20260506211543 18 219 4.8 11.3 0.00 0.64 0.64 87 1008.0
20260506211029 18 236 6.4 14.5 0.00 0.64 0.64 88 1007.8
20260506210530 18 242 6.4 14.5 0.00 0.64 0.64 88 1007.8
20260506210044 18 224 8.0 14.5 0.00 0.64 0.64 87 1007.7
20260506205532 18 184 6.4 9.7 0.00 0.64 0.64 87 1007.6
20260506205029 18 229 3.2 9.7 0.00 0.64 0.64 88 1007.7
20260506204539 18 233 4.8 9.7 0.00 0.64 0.64 87 1007.7
20260506204029 18 247 4.8 12.9 0.00 0.64 0.64 87 1007.6
20260506203531 18 248 6.4 12.9 0.00 0.64 0.64 86 1007.6
20260506203047 18 224 3.2 9.7 0.00 0.64 0.64 87 1007.6
20260506202534 18 254 4.8 9.7 0.00 0.64 0.64 87 1007.7
20260506202029 18 238 4.8 9.7 0.00 0.64 0.64 87 1007.5
20260506201545 18 193 4.8 9.7 0.00 0.64 0.64 88 1007.5
20260506201030 18 207 8.0 12.9 0.00 0.64 0.64 88 1007.5
20260506200531 18 198 8.0 12.9 0.00 0.64 0.64 88 1007.5
20260506200044 18 219 4.8 11.3 0.00 0.64 0.64 88 1007.5
20260506195529 18 277 6.4 11.3 0.00 0.64 0.64 88 1007.7
20260506195031 18 193 4.8 11.3 0.00 0.64 0.64 90 1007.6
20260506194557 18 249 1.6 11.3 0.00 0.64 0.64 92 1007.6
20260506194030 18 205 4.8 11.3 0.00 0.64 0.64 91 1007.7
20260506193536 18 229 4.8 9.7 0.00 0.64 0.64 91 1007.7
20260506193045 18 207 4.8 9.7 0.00 0.64 0.64 91 1007.6
20260506192528 18 174 4.8 9.7 0.00 0.64 0.64 92 1007.6
20260506192032 18 233 6.4 9.7 0.00 0.64 0.64 91 1007.7
20260506191551 18 219 4.8 9.7 0.00 0.64 0.64 92 1007.7
20260506191033 17 188 3.2 8.0 0.00 0.64 0.64 93 1007.7
20260506190535 17 217 4.8 8.0 0.00 0.64 0.64 93 1007.6
20260506190046 17 250 3.2 6.4 0.03 0.64 0.64 94 1007.7
20260506185531 17 146 3.2 6.4 0.05 0.64 0.64 94 1007.9
20260506185030 17 200 3.2 6.4 0.08 0.64 0.64 94 1007.8
20260506184553 17 205 3.2 6.4 0.10 0.64 0.64 94 1008.0
20260506184032 17 221 1.6 4.8 0.13 0.64 0.64 94 1008.0
20260506183532 17 234 0.0 4.8 0.13 0.64 0.64 94 1008.0
20260506183059 16 0 1.6 4.8 0.13 0.64 0.64 94 1008.1
20260506182531 16 271 0.0 4.8 0.13 0.64 0.64 94 1008.2
20260506182028 16 0 1.6 8.0 0.13 0.64 0.64 93 1008.2
20260506181549 16 282 3.2 8.0 0.13 0.64 0.64 93 1008.2
20260506181031 16 273 4.8 8.0 0.13 0.64 0.64 93 1008.1
20260506180532 16 245 3.2 12.9 0.13 0.64 0.64 92 1008.1
20260506180050 17 228 4.8 14.5 0.10 0.61 0.61 92 1008.1
20260506175536 17 250 6.4 14.5 0.08 0.58 0.58 91 1008.2
20260506175030 17 198 6.4 11.3 0.05 0.56 0.56 90 1008.1
20260506174543 17 241 4.8 12.9 0.03 0.53 0.53 89 1008.2
20260506174032 17 251 6.4 12.9 0.00 0.51 0.51 88 1008.1
20260506173531 17 221 6.4 12.9 0.00 0.51 0.51 88 1008.0
20260506173050 17 207 6.4 14.5 0.00 0.51 0.51 87 1008.0
20260506172532 17 210 8.0 14.5 0.00 0.51 0.51 88 1008.0
20260506172030 17 220 8.0 17.7 0.00 0.51 0.51 88 1008.0
20260506171556 17 183 11.3 17.7 0.00 0.51 0.51 88 1007.9
20260506171028 17 203 6.4 14.5 0.00 0.51 0.51 88 1008.0
20260506170533 17 212 8.0 17.7 0.00 0.51 0.51 88 1007.9
20260506170056 17 217 9.7 17.7 0.00 0.51 0.51 88 1008.0
20260506165528 17 228 9.7 16.1 0.00 0.51 0.51 88 1007.9
20260506165035 17 246 9.7 19.3 0.00 0.51 0.51 88 1007.9
20260506164545 17 211 11.3 19.3 0.00 0.51 0.51 89 1008.0
20260506164034 17 191 6.4 16.1 0.00 0.51 0.51 89 1008.0
20260506163529 16 206 8.0 17.7 0.00 0.51 0.51 90 1008.0
20260506163044 16 216 9.7 17.7 0.00 0.51 0.51 90 1007.9
20260506162532 16 203 11.3 25.7 0.00 0.51 0.51 90 1007.8
20260506162033 16 172 11.3 25.7 0.00 0.51 0.51 90 1007.9
20260506161544 16 173 9.7 25.7 0.00 0.51 0.51 90 1007.9
20260506161031 16 176 12.9 19.3 0.00 0.51 0.51 90 1007.9
20260506160531 16 193 9.7 22.5 0.00 0.51 0.51 90 1007.8
20260506160044 16 218 9.7 22.5 0.00 0.51 0.51 90 1008.1
20260506155531 16 159 11.3 22.5 0.00 0.51 0.51 90 1007.9
20260506155030 16 169 11.3 22.5 0.00 0.51 0.51 90 1007.8
20260506154556 16 161 12.9 22.5 0.00 0.51 0.51 91 1007.9
20260506154028 16 173 11.3 19.3 0.00 0.51 0.51 92 1007.9
20260506153527 16 197 11.3 30.6 0.00 0.51 0.51 92 1007.9
20260506153047 16 155 11.3 30.6 0.00 0.51 0.51 92 1007.8
20260506152532 16 148 12.9 20.9 0.03 0.51 0.51 93 1007.8
20260506152031 16 183 9.7 19.3 0.05 0.51 0.51 93 1007.9